Weather History for KJBR - April, 2013

Change the Weather History Date:

Tuesday, April 23, 2013

  Actual Average Record
Temperature  
Mean Temperature 64 °F 62 °F  
Max Temperature 77 °F 73 °F 91 °F (1965)
Min Temperature 50 °F 52 °F 34 °F (1909)
Degree Days  
Heating Degree Days 1 4  
Month to date heating degree days 184 172  
Since 1 July heating degree days 3427 3592  
Cooling Degree Days 0 2  
Month to date cooling degree days 46 27  
Year to date cooling degree days 46 33  
Growing Degree Days 14 (Base 50)    
Moisture  
Dew Point 56 °F    
Average Humidity 72    
Maximum Humidity 93    
Minimum Humidity 50    
Precipitation  
Precipitation 0.00 in 0.18 in 2.95 in (2004)
Month to date precipitation 3.27 3.71  
Year to date precipitation 15.15 15.36  
Snow  
Snow 0.00 in 0.00 in - ()
Month to date snowfall 0.0 0.0  
Since 1 July snowfall 11.0 4.8  
Snow Depth 0.00 in    
Sea Level Pressure  
Sea Level Pressure 29.95 in    
Wind  
Wind Speed 13 mph (SSW)    
Max Wind Speed 29 mph    
Max Gust Speed 37 mph    
Visibility 10 miles    
Events      
T = Trace of Precipitation, MM = Missing Value Source: NWS Daily Summary

Daily Weather History Graph

Daily Weather History Graph

Search for Another Location

Airport or City:

Trip Planner

Search our weather history database for the weather conditions in past years. The results will help you decide how hot, cold, wet, or windy it might be!

Date:

Astronomy

Apr. 23, 2013 Rise Set
Actual Time 6:19 AM CDT 7:42 PM CDT
Civil Twilight 5:52 AM CDT 8:09 PM CDT
Nautical Twilight 5:20 AM CDT 8:42 PM CDT
Astronomical Twilight 4:46 AM CDT 9:15 PM CDT
Moon 5:41 PM CDT (4/23) 4:42 AM CDT (4/23)
Length of Visible Light 14h 17m
Length of Day
13h 23m
Waxing Gibbous, 94% of the Moon is Illuminated
Apr 23
Waxing Gibbous
Apr 25
Full
May 2
Last Quarter
May 9
New
May 17
First Quarter

Hourly Weather History & Observations

Time (CDT) Temp. Dew Point Humidity Pressure Visibility Wind Dir Wind Speed Gust Speed Precip Events Conditions
12:53 AM 53.1 °F 48.9 °F 86% 30.02 in 10.0 mi ENE 4.6 mph - N/A   Clear
1:53 AM 54.0 °F 48.9 °F 83% 30.01 in 10.0 mi East 4.6 mph - N/A   Clear
2:53 AM 54.0 °F 48.0 °F 80% 30.00 in 10.0 mi East 4.6 mph - N/A   Clear
3:53 AM 50.0 °F 48.0 °F 93% 29.99 in 10.0 mi Calm Calm - N/A   Clear
4:53 AM 51.1 °F 48.0 °F 89% 29.98 in 10.0 mi Calm Calm - N/A   Clear
5:53 AM 54.0 °F 50.0 °F 86% 29.98 in 10.0 mi SSW 3.5 mph - N/A   Clear
6:53 AM 57.0 °F 53.1 °F 87% 29.98 in 10.0 mi South 6.9 mph - N/A   Clear
7:53 AM 60.1 °F 55.9 °F 86% 29.96 in 10.0 mi South 15.0 mph 20.7 mph N/A   Clear
8:50 AM 64.4 °F 59.0 °F 83% 29.98 in 10.0 mi South 10.4 mph - N/A   Mostly Cloudy
8:53 AM 64.9 °F 59.0 °F 81% 29.98 in 10.0 mi South 10.4 mph - N/A   Mostly Cloudy
9:34 AM 66.2 °F 60.8 °F 83% 30.00 in 10.0 mi SSW 24.2 mph 34.5 mph N/A   Overcast
9:53 AM 64.9 °F 59.0 °F 81% 30.01 in 10.0 mi SSW 19.6 mph - N/A   Overcast
10:26 AM 66.2 °F 59.0 °F 78% 30.01 in 10.0 mi South 19.6 mph 26.5 mph N/A   Overcast
10:53 AM 66.9 °F 60.1 °F 79% 30.01 in 10.0 mi SSW 18.4 mph 24.2 mph N/A   Overcast
11:53 AM 71.1 °F 61.0 °F 70% 29.97 in 10.0 mi South 19.6 mph 32.2 mph N/A   Mostly Cloudy
12:03 PM 73.4 °F 60.8 °F 65% 29.97 in 10.0 mi SSW 19.6 mph 29.9 mph N/A   Scattered Clouds
12:53 PM 73.9 °F 59.0 °F 59% 29.95 in 10.0 mi SSW 19.6 mph 29.9 mph N/A   Overcast
1:53 PM 73.9 °F 57.9 °F 57% 29.93 in 10.0 mi SSW 20.7 mph 35.7 mph N/A   Mostly Cloudy
2:53 PM 75.0 °F 59.0 °F 57% 29.91 in 10.0 mi SSW 18.4 mph 27.6 mph N/A   Mostly Cloudy
3:53 PM 77.0 °F 57.9 °F 52% 29.88 in 10.0 mi SSW 24.2 mph 35.7 mph N/A   Mostly Cloudy
4:53 PM 75.0 °F 59.0 °F 57% 29.87 in 10.0 mi SW 20.7 mph 27.6 mph N/A   Mostly Cloudy
5:53 PM 73.9 °F 60.1 °F 62% 29.87 in 10.0 mi SW 19.6 mph 24.2 mph N/A   Overcast
6:53 PM 73.9 °F 60.1 °F 62% 29.86 in 10.0 mi SW 11.5 mph - N/A   Overcast
7:53 PM 72.0 °F 60.1 °F 66% 29.87 in 10.0 mi SSW 8.1 mph - N/A   Overcast
8:53 PM 69.1 °F 60.1 °F 73% 29.88 in 10.0 mi SSW 9.2 mph - N/A   Partly Cloudy
9:53 PM 69.1 °F 60.1 °F 73% 29.89 in 10.0 mi SSW 5.8 mph - N/A   Mostly Cloudy
10:53 PM 69.1 °F 59.0 °F 70% 29.91 in 10.0 mi NW 13.8 mph 20.7 mph N/A   Overcast
11:21 PM 57.2 °F 51.8 °F 82% 29.93 in 10.0 mi NNW 15.0 mph 24.2 mph N/A   Mostly Cloudy
11:53 PM 53.1 °F 46.0 °F 77% 29.95 in 10.0 mi NW 13.8 mph 24.2 mph N/A   Overcast